Location: Bim Brunna
(47.1250°N, 9.5460°E)
Time: 19:12:48
(UTC+00:00)

Daily predictions for brighter satellites

Satellite Brightness Start Highest point End
(mag) Time Altitude Azimuth Time Altitude Azimuth Time Altitude Azimuth
IRS-1C Rocket 4.1 17:37:55 10° SSE 17:43:10 76° ENE 17:48:28 10° NNW
COSMO-SKYMED 1 2.7 17:39:28 10° NNE 17:43:50 86° WNW 17:48:11 10° SSW
FALCON 9 DEB 3.6 17:42:46 10° NW 17:45:49 42° NNE 17:48:51 10° E
Cosmos 1633 Rocket 4.0 17:41:31 10° SSW 17:45:51 55° WNW 17:50:14 10° N
SeaSat 1 3.8 17:42:58 10° ENE 17:46:25 19° ESE 17:49:52 10° SSE
Cosmos 2242 Rocket 3.7 17:43:09 10° N 17:47:35 55° ENE 17:51:56 10° SSE
MOS 1 Rocket 4.1 17:43:56 10° N 17:49:05 68° WNW 17:54:26 10° SSW
Gbstr 26 Del rocket 3.8 17:46:00 10° WNW 17:50:15 49° N 17:55:27 10° E
Cosmos 2333 Rocket 2.5 17:47:59 10° S 17:53:21 44° ESE 17:58:46 10° NE
Abrixas rocket 1.4 17:51:45 10° WNW 17:54:14 85° S 17:56:40 10° ESE
Cosmos 1295 Rocket 4.5 17:48:52 10° S 17:55:06 84° E 18:01:17 10° N
Meteor 2-4 Rocket 3.8 17:52:39 10° N 17:58:35 83° E 18:04:31 10° SSE
Cosmos 2322 Rocket 3.3 17:54:09 10° SW 17:59:34 48° NW 18:05:01 10° NNE
Helios 1A Rocket 3.2 17:55:57 10° SE 17:59:48 45° ENE 18:03:40 10° N
Lacrosse 4 Rocket 1.8 17:56:23 10° S 18:00:37 48° ESE 18:04:58 10° NE
Nadezhda 3 Rocket 4.4 17:54:51 10° NNW 18:01:13 72° W 18:07:31 10° S
GP-B 3.3 17:57:25 10° SSE 18:01:43 51° E 18:06:01 10° N
ARGOS 3.2 17:58:35 10° SSE 18:03:57 68° ENE 18:09:22 10° N
Cosmos 192 4.4 18:02:21 10° S 18:07:08 57° ESE 18:11:59 10° NNE
Cosmos 1869 Rocket 3.9 18:04:07 10° SSE 18:08:13 41° E 18:12:23 10° NNE
CZ-4 R/B 1.7 18:05:32 10° S 18:09:23 68° WSW 18:13:20 10° NNW
Cosmos 2219 Rocket 2.3 18:04:25 10° S 18:09:49 52° ESE 18:15:16 10° NE
CZ-4B R/B 2.8 18:07:27 10° N 18:10:21 39° WNW 18:13:17 10° SW
FALCON 9 DEB 3.0 18:11:26 10° WNW 18:14:34 62° NNE 18:16:47 18° ESE
ERS-2 2.1 18:11:19 10° NNE 18:14:58 63° ESE 18:18:35 10° S
CZ-2C R/B 2.8 18:10:03 10° NNE 18:15:22 52° E 18:20:31 10° S
Cosmos 1238 Rocket 3.7 18:13:06 10° SSE 18:16:25 25° E 18:19:21 10° NE
Cosmos 1689 Rocket 1.8 18:13:39 10° NNE 18:16:33 73° ESE 18:19:25 10° S
Cosmos 1378 3.7 18:15:23 10° N 18:18:50 35° ENE 18:22:16 10° SE
SL-08 RB Rocket 3.7 18:14:24 10° SSE 18:18:53 65° ENE 18:23:27 10° N
USA 305 3.6 18:15:38 10° NW 18:19:43 41° NNE 18:22:40 17° E
NOSS 3-2 (A) 3.8 18:17:18 10° S 18:22:22 37° ESE 18:28:04 10° NE
CREW DRAGON DEMO-1 DEB 3.0 18:19:57 10° SW 18:22:39 44° SSE 18:23:59 24° E
HJ-1C 3.4 18:20:11 10° S 18:23:29 79° W 18:26:48 10° NNW
FALCON 9 DEB 3.0 18:20:52 10° WNW 18:24:03 63° NNE 18:25:51 23° E
COSMOS 2428 2.8 18:19:00 10° S 18:24:32 57° ESE 18:30:07 10° NE
Cosmos 1733 Rocket 4.2 18:22:20 10° SE 18:25:40 22° E 18:29:00 10° NE
SL-16 R/B 4.3 18:23:26 10° WSW 18:28:12 27° NW 18:33:00 10° N
USA 307 3.5 18:29:24 10° NW 18:33:31 45° NNE 18:35:52 22° E
SL-8 Rocket 3.9 18:27:20 10° S 18:33:34 81° E 18:39:46 10° N
CENTAUR R/B 3.1 18:29:06 10° S 18:34:09 31° ESE 18:39:57 10° NE
USA 306 3.4 18:30:39 10° NW 18:34:49 46° NNE 18:37:06 23° E
NOSS 0 Rocket 4.3 18:30:23 10° S 18:35:58 38° ESE 18:41:35 10° NE
ATLAS CENTAUR R/B 3.4 18:33:12 10° W 18:36:09 22° NW 18:39:09 10° NNE
Cosmos 1898 Rocket 4.4 18:32:29 10° N 18:37:04 30° NE 18:39:11 22° E
Cosmos 1066 Rocket 4.2 18:31:32 10° N 18:37:18 69° ENE 18:43:07 10° SSE
Cosmos 1743 3.4 18:36:45 10° SSE 18:40:11 31° E 18:43:38 10° NNE
Cosmos 1666 3.4 18:38:20 10° SSW 18:41:59 54° WNW 18:45:41 10° N
USA 308 3.3 18:40:13 10° NW 18:44:23 49° NNE 18:46:15 28° E
CSL-04 Rocket 4.0 18:39:26 10° S 18:44:58 72° WSW 18:50:28 10° NNW
Cosmos 2322 4.0 18:39:48 10° SW 18:45:30 71° WNW 18:51:15 10° NNE
Meteor 1-23 Rocket 4.2 18:42:07 10° N 18:47:42 64° ENE 18:53:20 10° SSE
Okean-O 4.3 18:44:12 10° SSW 18:48:17 36° W 18:52:23 10° NNW
BREEZE-M DEB (TANK) 3.0 18:47:41 10° SW 18:49:58 45° SSE 18:50:06 45° SE
ASTEX 1 3.4 18:46:56 10° NNE 18:51:45 55° E 18:56:32 10° S
Cosmos 2366 rocket 4.0 18:45:28 10° S 18:51:49 89° E 18:58:13 10° N
H-2A R/B 3.8 18:47:25 10° SSW 18:52:23 35° W 18:57:21 10° NNW
Cosmos 1674 Rocket 4.2 18:51:05 10° N 18:55:01 33° ENE 18:55:15 33° E
SJ-6B 2.8 18:52:44 23° SSE 18:55:06 62° ENE 18:59:04 10° N
Cosmos 990 Rocket 4.2 18:52:43 10° NNW 18:57:45 48° ENE 18:59:41 33° ESE
Ariane Rocket 3.1 18:55:34 23° SE 18:58:40 56° ENE 19:03:39 10° N
Cosmos 2221 Rocket 3.5 18:54:41 10° N 18:59:08 70° E 19:02:10 20° SSE
USA 186 1.3 18:59:36 72° WNW 18:59:36 72° WNW 19:02:05 10° NNW
Cosmos 1763 Rocket 4.0 18:57:10 10° SSE 19:01:58 35° ESE 19:06:46 10° NE
OBJECT-B 0.7 19:02:09 60° ENE 19:02:09 60° ENE 19:05:15 10° N
NOSS 3-2 (C) 3.6 18:58:48 10° S 19:04:01 43° ESE 19:08:11 18° NE
SL-08 R/B 4.5 18:58:27 10° S 19:04:51 71° E 19:11:18 10° NNE
Meteor 1-11 Rocket 4.0 19:00:12 10° SSW 19:05:51 71° WNW 19:11:26 10° N
Cosmos 1378 Rocket 4.1 19:05:20 10° N 19:09:21 40° ENE 19:09:21 40° ENE
Cosmos 2360 Rocket 4.2 19:05:32 10° WSW 19:10:19 27° NW 19:15:08 10° N
Cosmos 468 Rocket 4.2 19:08:33 10° S 19:13:35 47° ESE 19:18:38 10° NNE
FALCON 9 DEB 3.4 19:10:42 10° WNW 19:13:45 52° SW 19:13:45 52° SW
Cosmos 1943 Rocket 3.5 19:10:27 10° N 19:14:57 23° NE 19:15:25 23° NE
Cosmos 1821 Rocket 3.9 19:09:56 10° S 19:16:02 62° E 19:22:06 10° NNE
SJ 16-02 1.7 19:12:27 10° NNW 19:16:50 65° WSW 19:19:19 25° S
Cosmos 2237 Rocket 2.2 19:11:23 10° S 19:16:56 57° ESE 19:22:31 10° NE
Cosmos 1727 Rocket 4.1 19:10:53 10° N 19:17:05 78° W 19:23:17 10° S
DMSP B5D2-2 4.3 19:12:30 10° N 19:17:43 73° WNW 19:22:54 10° SSW
Cosmos 1544 3.0 19:14:17 10° S 19:17:55 86° W 19:21:37 10° N
Cosmos 2278 Rocket 2.2 19:13:28 10° NNW 19:19:10 83° WSW 19:22:10 29° SSE
MOS 1 4.2 19:15:42 22° SSE 19:19:31 83° ENE 19:25:14 10° NNW
Cosmos 1536 3.9 19:16:34 10° SSW 19:20:23 44° WNW 19:24:14 10° N
FALCON 9 DEB 4.1 19:18:39 10° WNW 19:21:22 38° SW 19:21:22 38° SW
Cosmos 1000 Rocket 4.4 19:15:30 10° N 19:21:48 70° E 19:25:17 28° SSE
USA 81 3.9 19:16:35 10° S 19:21:49 70° E 19:27:04 10° N
SL-4 R/B 3.8 19:19:41 10° W 19:22:08 18° SW 19:22:57 17° SSW
SeaSat 1 2.7 19:19:26 10° NNE 19:24:22 70° WNW 19:29:16 10° SW
SPOT 3 Rocket 3.7 19:24:24 48° E 19:24:48 49° ENE 19:29:51 10° N
Cosmos 2239 Rocket 4.4 19:19:34 10° S 19:25:44 62° E 19:31:55 10° NNE
Cosmos 1934 Rocket 4.2 19:30:07 45° E 19:30:07 45° E 19:35:45 10° NNE
Resurs 01 Rocket 2.2 19:31:41 43° NNE 19:31:41 43° NNE 19:35:06 10° N
SME Rocket 4.0 19:24:54 10° NNE 19:32:21 82° WNW 19:37:13 10° SSW
Meteor 2-20 Rocket 4.4 19:27:05 10° N 19:33:14 87° W 19:37:09 24° S
USA 234 3.2 19:33:09 41° E 19:35:13 57° SE 19:41:38 10° SW
Gbstr 26 Del rocket 3.4 19:32:40 10° WNW 19:37:31 86° SSW 19:38:19 66° SE
Cosmos 2333 Rocket 3.8 19:32:34 10° WSW 19:37:45 35° NW 19:43:00 10° NNE
Lacrosse 4 Rocket 3.7 19:35:49 10° WSW 19:39:33 26° NW 19:43:21 10° NNE
Cosmos 1937 Rocket 3.4 19:34:44 10° NNW 19:39:49 65° ENE 19:39:49 65° ENE
Cosmos 2123 Rocket 3.9 19:34:08 10° N 19:40:19 61° ENE 19:41:02 57° ESE
USA 238 DEB 3.6 19:37:20 10° SW 19:43:55 84° NW 19:50:53 10° NE
USA 238 3.6 19:37:27 10° SW 19:44:02 84° NW 19:50:59 10° NE
Resurs 1-3 3.7 19:45:27 70° WSW 19:45:37 71° WSW 19:50:01 10° NNW
DELTA 2 R/B (1) 4.3 19:41:51 10° WSW 19:46:36 38° S 19:46:36 38° S
Cosmos 2219 Rocket 4.0 19:49:08 10° WSW 19:54:02 30° NW 19:58:59 10° NNE
Terra 4.2 20:00:53 13° NNE 20:00:53 13° NNE 20:01:33 10° NNE
USA 305 3.9 19:55:38 10° WNW 19:58:46 45° W 19:58:46 45° W
Cosmos 1980 4.0 19:56:07 10° SW 20:01:43 65° WNW 20:07:22 10° NNE
Cosmos 1733 Rocket 4.4 19:59:10 10° SW 20:03:12 38° WNW 20:07:19 10° N
Meteor 2-9 Rocket 4.4 20:10:29 57° N 20:10:29 57° N 20:14:45 10° N
NOSS 3-2 (A) 4.2 20:07:23 10° WSW 20:12:59 50° NW 20:19:29 10° NE
USA 307 4.5 20:09:28 10° WNW 20:12:00 33° W 20:12:00 33° W
Cosmos 1898 Rocket 4.3 20:14:21 10° NNW 20:19:19 44° WSW 20:19:30 44° WSW
Cosmos 2369 Rocket 3.5 20:14:33 10° NNW 20:18:00 30° NNE 20:18:00 30° NNE
CENTAUR R/B 2.9 20:18:18 10° SW 20:24:17 61° NW 20:31:28 10° NE
USA 281 4.4 20:54:08 31° NNE 20:54:08 31° NNE 20:58:17 10° NNW
NOSS 3-2 (C) 4.3 20:49:19 10° WSW 20:54:54 45° NW 20:55:55 42° NNW
Cosmos 1943 Rocket 3.5 20:53:38 10° NNW 20:56:58 36° NW 20:56:58 36° NW
Cosmos 2237 Rocket 4.0 20:56:27 10° WSW 21:01:21 29° NW 21:06:17 10° N
Resurs 01 Rocket 4.4 21:09:14 15° WNW 21:09:14 15° WNW 21:10:40 10° NW
USA 234 4.2 21:20:31 40° W 21:20:31 40° W 21:24:39 10° WSW
